Victorville, CA

10:48 AM PST on February 25, 2017 (GMT -0800)
Southern California Logistics

Weather History for KVCV - May, 2013

Change the Weather History Date:

Wednesday, May 22, 2013

  Actual Average (KSBD) Record (KSBD)
Temperature  
Mean Temperature 68 °F -  
Max Temperature 82 °F 81 °F 91 °F (2012)
Min Temperature 55 °F 52 °F 53 °F (2015)
Cooling Degree Days 4    
Growing Degree Days 18 (Base 50)    
Moisture  
Dew Point 31 °F    
Average Humidity 28    
Maximum Humidity 48    
Minimum Humidity 11    
Precipitation  
Precipitation 0.00 in - - ()
Sea Level Pressure  
Sea Level Pressure 29.81 in    
Wind  
Wind Speed 12 mph (SW)    
Max Wind Speed 23 mph    
Max Gust Speed 30 mph    
Visibility 10 miles    
Events      
Averages and records for this station are not official NWS values.
T = Trace of Precipitation, MM = Missing Value Source: NWS Daily Summary

Daily Weather History Graph

Daily Weather History Graph

Search for Another Location

Airport or City:

Trip Planner

Search our weather history database for the weather conditions in past years. The results will help you decide how hot, cold, wet, or windy it might be!

Date:

Astronomy

May. 22, 2013 Rise Set
Actual Time 5:42 AM PDT 7:50 PM PDT
Civil Twilight 5:13 AM PDT 8:19 PM PDT
Nautical Twilight 4:38 AM PDT 8:54 PM PDT
Astronomical Twilight 4:01 AM PDT 9:31 PM PDT
Moon 5:23 PM PDT (5/22) 3:42 AM PDT (5/22)
Length of Visible Light 15h 05m
Length of Day
14h 08m
Waxing Gibbous, 92% of the Moon is Illuminated
May 22
Waxing Gibbous
May 24
Full
May 31
Last Quarter
Jun 8
New
Jun 16
First Quarter

Hourly Weather History & Observations

Time (PDT) Temp. Dew Point Humidity Pressure Visibility Wind Dir Wind Speed Gust Speed Precip Events Conditions
12:15 AM 64.4 °F 42.8 °F 45% 29.86 in 10.0 mi South 8.1 mph - N/A   Clear
12:35 AM 62.6 °F 42.8 °F 48% 29.87 in 10.0 mi South 5.8 mph - N/A   Clear
12:55 AM 66.2 °F 37.4 °F 35% 29.86 in 10.0 mi SSW 8.1 mph - N/A   Clear
1:15 AM 64.4 °F 37.4 °F 37% 29.86 in 10.0 mi SSW 9.2 mph - N/A   Clear
1:35 AM 64.4 °F 39.2 °F 40% 29.86 in 10.0 mi SSW 8.1 mph - N/A   Clear
1:55 AM 64.4 °F 37.4 °F 37% 29.85 in 10.0 mi SW 12.7 mph - N/A   Clear
2:15 AM 62.6 °F 37.4 °F 39% 29.85 in 10.0 mi SSW 9.2 mph - N/A   Clear
2:35 AM 62.6 °F 35.6 °F 37% 29.85 in 10.0 mi SW 10.4 mph - N/A   Clear
2:55 AM 60.8 °F 35.6 °F 39% 29.84 in 10.0 mi SW 12.7 mph - N/A   Clear
3:15 AM 60.8 °F 35.6 °F 39% 29.84 in 10.0 mi SSW 10.4 mph - N/A   Clear
3:35 AM 59.0 °F 33.8 °F 39% 29.84 in 10.0 mi SSW 8.1 mph - N/A   Clear
3:55 AM 57.2 °F 33.8 °F 41% 29.84 in 10.0 mi SW 9.2 mph - N/A   Clear
4:15 AM 57.2 °F 32.0 °F 38% 29.84 in 10.0 mi SW 5.8 mph - N/A   Clear
4:35 AM 57.2 °F 30.2 °F 36% 29.84 in 10.0 mi South 4.6 mph - N/A   Clear
4:55 AM 55.4 °F 28.4 °F 36% 29.82 in 10.0 mi SSW 9.2 mph - N/A   Clear
5:15 AM 57.2 °F 28.4 °F 33% 29.84 in 10.0 mi SW 8.1 mph - N/A   Clear
5:35 AM 57.2 °F 26.6 °F 31% 29.84 in 10.0 mi WSW 9.2 mph - N/A   Clear
5:55 AM 55.4 °F 26.6 °F 33% 29.82 in 10.0 mi WSW 6.9 mph - N/A   Clear
6:15 AM 57.2 °F 26.6 °F 31% 29.84 in 10.0 mi WSW 10.4 mph - N/A   Clear
6:35 AM 57.2 °F 24.8 °F 29% 29.84 in 10.0 mi WSW 11.5 mph - N/A   Clear
6:55 AM 59.0 °F 24.8 °F 27% 29.83 in 10.0 mi WSW 15.0 mph - N/A   Clear
7:15 AM 60.8 °F 23.0 °F 23% 29.83 in 10.0 mi SW 16.1 mph - N/A   Clear
7:35 AM 60.8 °F 21.2 °F 22% 29.84 in 10.0 mi SW 13.8 mph - N/A   Clear
7:55 AM 60.8 °F 21.2 °F 22% 29.83 in 10.0 mi SW 19.6 mph 24.2 mph N/A   Clear
8:15 AM 62.6 °F 21.2 °F 20% 29.83 in 10.0 mi WSW 20.7 mph 26.5 mph N/A   Clear
8:35 AM 62.6 °F 23.0 °F 22% 29.83 in 10.0 mi WSW 17.3 mph 25.3 mph N/A   Clear
8:55 AM 64.4 °F 24.8 °F 22% 29.83 in 10.0 mi WSW 19.6 mph 23.0 mph N/A   Clear
9:15 AM 64.4 °F 26.6 °F 24% 29.83 in 10.0 mi WSW 13.8 mph 20.7 mph N/A   Clear
9:35 AM 66.2 °F 28.4 °F 24% 29.83 in 10.0 mi SW 12.7 mph - N/A   Scattered Clouds
9:55 AM 66.2 °F 28.4 °F 24% 29.82 in 10.0 mi WSW 13.8 mph 19.6 mph N/A   Scattered Clouds
10:15 AM 69.8 °F 30.2 °F 23% 29.82 in 10.0 mi WSW 12.7 mph 20.7 mph N/A   Scattered Clouds
10:35 AM 69.8 °F 30.2 °F 23% 29.82 in 10.0 mi WSW 12.7 mph - N/A   Scattered Clouds
10:55 AM 71.6 °F 30.2 °F 22% 29.82 in 10.0 mi WSW 13.8 mph 18.4 mph N/A   Scattered Clouds
11:15 AM 71.6 °F 30.2 °F 22% 29.81 in 10.0 mi WSW 11.5 mph - N/A   Scattered Clouds
11:35 AM 73.4 °F 30.2 °F 20% 29.81 in 10.0 mi WSW 13.8 mph - N/A   Scattered Clouds
11:55 AM 75.2 °F 28.4 °F 18% 29.81 in 10.0 mi WSW 15.0 mph 21.9 mph N/A   Scattered Clouds
12:15 PM 75.2 °F 28.4 °F 18% 29.80 in 10.0 mi SW 9.2 mph 16.1 mph N/A   Scattered Clouds
12:35 PM 78.8 °F 26.6 °F 15% 29.79 in 10.0 mi WSW 15.0 mph 20.7 mph N/A   Scattered Clouds
12:55 PM 80.6 °F 26.6 °F 14% 29.78 in 10.0 mi SW 16.1 mph 20.7 mph N/A   Scattered Clouds
1:15 PM 80.6 °F 26.6 °F 14% 29.78 in 10.0 mi SW 16.1 mph 20.7 mph N/A   Scattered Clouds
1:35 PM 82.4 °F 26.6 °F 13% 29.78 in 10.0 mi West 5.8 mph - N/A   Scattered Clouds
1:55 PM 82.4 °F 23.0 °F 11% 29.77 in 10.0 mi WSW 11.5 mph 17.3 mph N/A   Scattered Clouds
2:15 PM 82.4 °F 26.6 °F 13% 29.76 in 10.0 mi WSW 16.1 mph 25.3 mph N/A   Scattered Clouds
2:35 PM 82.4 °F 26.6 °F 13% 29.75 in 10.0 mi WSW 15.0 mph 24.2 mph N/A   Scattered Clouds
2:55 PM 82.4 °F 30.2 °F 15% 29.75 in 10.0 mi West 13.8 mph 23.0 mph N/A   Scattered Clouds
3:15 PM 82.4 °F 30.2 °F 15% 29.75 in 10.0 mi West 13.8 mph 23.0 mph N/A   Scattered Clouds
3:35 PM 80.6 °F 32.0 °F 17% 29.75 in 10.0 mi WSW 18.4 mph 29.9 mph N/A   Scattered Clouds
3:55 PM 80.6 °F 33.8 °F 18% 29.74 in 10.0 mi West 20.7 mph 27.6 mph N/A   Scattered Clouds
4:15 PM 78.8 °F 33.8 °F 20% 29.75 in 7.0 mi WSW 23.0 mph 27.6 mph N/A   Scattered Clouds
4:35 PM 78.8 °F 35.6 °F 21% 29.75 in 10.0 mi WSW 21.9 mph 29.9 mph N/A   Scattered Clouds
4:55 PM 77.0 °F 35.6 °F 22% 29.75 in 10.0 mi WSW 18.4 mph 27.6 mph N/A   Scattered Clouds
5:15 PM 77.0 °F 35.6 °F 22% 29.74 in 10.0 mi WSW 20.7 mph 26.5 mph N/A   Scattered Clouds
5:35 PM 75.2 °F 35.6 °F 24% 29.75 in 10.0 mi WSW 19.6 mph 26.5 mph N/A   Scattered Clouds
5:55 PM 75.2 °F 35.6 °F 24% 29.75 in 10.0 mi WSW 20.7 mph 26.5 mph N/A   Clear
6:15 PM 73.4 °F 37.4 °F 27% 29.75 in 10.0 mi WSW 17.3 mph 26.5 mph N/A   Scattered Clouds
6:35 PM 71.6 °F 35.6 °F 27% 29.76 in 10.0 mi WSW 20.7 mph 28.8 mph N/A   Clear
6:55 PM 69.8 °F 35.6 °F 28% 29.77 in 10.0 mi WSW 20.7 mph 26.5 mph N/A   Clear
7:15 PM 68.0 °F 37.4 °F 33% 29.77 in 10.0 mi WSW 15.0 mph 26.5 mph N/A   Clear
7:35 PM 66.2 °F 33.8 °F 30% 29.78 in 10.0 mi SW 16.1 mph 21.9 mph N/A   Clear
7:55 PM 64.4 °F 33.8 °F 32% 29.78 in 10.0 mi SW 18.4 mph 24.2 mph N/A   Clear
8:15 PM 64.4 °F 35.6 °F 34% 29.79 in 10.0 mi SW 17.3 mph - N/A   Clear
8:35 PM 62.6 °F 33.8 °F 34% 29.79 in 10.0 mi SW 18.4 mph 23.0 mph N/A   Clear
8:55 PM 60.8 °F 32.0 °F 34% 29.80 in 10.0 mi SW 19.6 mph 23.0 mph N/A   Clear
9:15 PM 60.8 °F 32.0 °F 34% 29.81 in 10.0 mi SW 18.4 mph 24.2 mph N/A   Clear
9:35 PM 59.0 °F 30.2 °F 34% 29.82 in 10.0 mi SW 12.7 mph 19.6 mph N/A   Clear
9:55 PM 57.2 °F 32.0 °F 38% 29.82 in 10.0 mi SW 10.4 mph 18.4 mph N/A   Clear
10:15 PM 57.2 °F 32.0 °F 38% 29.82 in 10.0 mi SSW 9.2 mph - N/A   Clear
10:35 PM 57.2 °F 33.8 °F 41% 29.82 in 10.0 mi SW 11.5 mph - N/A   Clear
10:55 PM 55.4 °F 32.0 °F 41% 29.81 in 10.0 mi SW 11.5 mph - N/A   Clear
11:15 PM 55.4 °F 30.2 °F 38% 29.82 in 10.0 mi SW 10.4 mph - N/A   Clear
11:35 PM 55.4 °F 28.4 °F 36% 29.82 in 10.0 mi SW 13.8 mph - N/A   Clear
11:55 PM 55.4 °F 24.8 °F 31% 29.82 in 10.0 mi SW 13.8 mph 18.4 mph N/A   Clear